This demonstration page uses our WeatherBlox Daily Observations layout. Learn more.

Left ArrowRight Arrow

40.97296, -117.73568

Hourly Observations for January 17, 2022

Temp ( °F °C ) Dew Point ( °F °C ) Humidity (%) Winds ( mph kmh ) Pressure ( in mb ) Visibility ( mi km ) Precip ( " mm )
12:56 am 00:56 Clear 23 -5 20 -6.7 88 88 Calm 30.18 1022 10 16 0.00 0.00
1:56 am 01:56 Clear 22 -5.6 20 -6.7 92 92 Calm 30.17 1022 10 16 0.00 0.00
2:56 am 02:56 Clear with Mist and Fog 22 -5.6 18 -7.8 85 85 Calm 30.16 1021 2 2 0.00 0.00
3:00 am 03:00 Clear with Mist and Fog 22 -5.6 19 -7.2 89 89 Calm 30.34 1027 1 1 0.00 0.00
3:14 am 03:14 Mostly Cloudy with Freezing Fog 21 -6 19 -7 93 93 Calm 30.35 1028 1 1 0.00 0.00
3:31 am 03:31 Mostly Cloudy with Freezing Fog 21 -6.1 18 -7.8 88 88 Calm 30.35 1028 0 0 0.00 0.00
3:56 am 03:56 Mostly Cloudy with Freezing Fog 22 -5.6 19 -7.2 89 89 Calm 30.15 1021 1 1 0.00 0.00
4:11 am 04:11 Mostly Cloudy with Mist and Fog 21 -6.1 18 -7.8 88 88 Calm 30.34 1027 1 2 0.00 0.00
4:23 am 04:23 Mostly Cloudy with Freezing Fog 21 -6.1 18 -7.8 88 88 Calm 30.34 1027 0 0 0.00 0.00
4:36 am 04:36 Mostly Cloudy with Mist and Fog 20 -6.7 18 -7.8 92 92 SE 3 6 30.35 1028 1 1 0.00 0.00
4:38 am 04:38 Partly Cloudy with Mist and Fog 20 -6.7 18 -7.8 92 92 SE 5 7 30.35 1028 1 2 0.00 0.00
4:48 am 04:48 Mostly Cloudy with Mist and Fog 21 -6.1 18 -7.8 88 88 SE 3 6 30.34 1027 1 1 0.00 0.00
4:56 am 04:56 Mostly Cloudy with Mist and Fog 21 -6.1 18 -7.8 88 88 SSE 5 7 30.17 1022 1 1 0.00 0.00
4:59 am 04:59 Partly Cloudy with Mist and Fog 21 -6.1 19 -7.2 92 92 S 5 7 30.34 1027 1 2 0.00 0.00
5:01 am 05:01 Partly Cloudy with Mist and Fog 21 -6.1 19 -7.2 92 92 S 5 7 30.34 1027 2 3 0.00 0.00
5:09 am 05:09 Mostly Clear 20 -6.7 17 -8.3 89 89 Calm 30.35 1028 7 11 0.00 0.00
5:56 am 05:56 Clear 21 -6.1 17 -8.3 85 85 Calm 30.19 1022 9 14 0.00 0.00
6:30 am 06:30 Partly Cloudy 17 -8.3 13 -10.6 84 84 Calm 30.38 1029 9 14 0.00 0.00
6:36 am 06:36 Mostly Cloudy with Mist and Fog 18 -7.8 14 -10 84 84 Calm 30.37 1028 3 4 0.00 0.00
6:39 am 06:39 Mostly Cloudy with Mist and Fog 18 -7.8 15 -9.4 88 88 Calm 30.37 1028 1 2 0.00 0.00
6:47 am 06:47 Mostly Cloudy with Freezing Fog 19 -7.2 16 -8.9 88 88 Calm 30.36 1028 1 1 0.00 0.00
6:56 am 06:56 Mostly Cloudy with Freezing Fog 19 -7.2 17 -8.3 92 92 Calm 30.20 1023 0 0 0.00 0.00
7:17 am 07:17 Mostly Cloudy with Mist and Fog 19 -7.2 15 -9.4 84 84 Calm 30.37 1028 1 1 0.00 0.00
7:22 am 07:22 Mostly Cloudy with Mist and Fog 19 -7.2 15 -9.4 84 84 Calm 30.37 1028 2 2 0.00 0.00
7:25 am 07:25 Partly Cloudy with Mist and Fog 19 -7.2 15 -9.4 84 84 Calm 30.37 1028 3 4 0.00 0.00
7:28 am 07:28 Partly Cloudy with Mist and Fog 19 -7.2 15 -9.4 84 84 Calm 30.37 1028 1 2 0.00 0.00
7:35 am 07:35 Mostly Cloudy with Mist and Fog 19 -7.2 16 -8.9 88 88 Calm 30.37 1028 1 2 0.00 0.00
7:37 am 07:37 Partly Cloudy with Mist and Fog 19 -7.2 16 -8.9 88 88 Calm 30.37 1028 2 3 0.00 0.00
7:39 am 07:39 Partly Cloudy with Mist and Fog 19 -7.2 16 -8.9 88 88 Calm 30.37 1028 3 5 0.00 0.00
7:56 am 07:56 Sunny with Mist and Fog 21 -6.1 17 -8.3 85 85 Calm 30.22 1023 6 10 0.00 0.00
8:56 am 08:56 Sunny 26 -3.3 25 -3.9 96 96 Calm 30.20 1023 10 16 0.00 0.00
9:56 am 09:56 Sunny 33 0.6 28 -2.2 82 82 NE 5 7 30.19 1022 10 16 0.00 0.00
10:56 am 10:56 Sunny 37 2.8 28 -2.2 70 70 Calm 30.17 1022 10 16 0.00 0.00
11:56 am 11:56 Sunny 40 4.4 29 -1.7 65 65 Calm 30.13 1020 10 16 0.00 0.00
12:56 pm 12:56 Sunny 42 5.6 30 -1.1 62 62 VRB 3 6 30.10 1019 10 16 0.00 0.00
1:56 pm 13:56 Sunny 44 6.7 30 -1.1 58 58 Calm 30.08 1019 10 16 0.00 0.00
2:56 pm 14:56 Sunny 45 7.2 30 -1.1 56 56 Calm 30.06 1018 10 16 0.00 0.00
3:56 pm 15:56 Sunny 44 6.7 30 -1.1 58 58 Calm 30.06 1018 10 16 0.00 0.00
4:56 pm 16:56 Clear 41 5 30 -1.1 65 65 Calm 30.07 1018 10 16 0.00 0.00
5:56 pm 17:56 Clear 33 0.6 27 -2.8 78 78 Calm 30.10 1019 10 16 0.00 0.00
6:56 pm 18:56 Clear 31 -0.6 26 -3.3 82 82 W 3 6 30.11 1020 10 16 0.00 0.00
7:56 pm 19:56 Clear 28 -2.2 25 -3.9 88 88 SE 5 7 30.12 1020 10 16 0.00 0.00
8:56 pm 20:56 Clear 28 -2.2 25 -3.9 88 88 Calm 30.12 1020 10 16 0.00 0.00
9:56 pm 21:56 Clear 27 -2.8 24 -4.4 89 89 Calm 30.11 1020 10 16 0.00 0.00
10:56 pm 22:56 Clear 25 -3.9 22 -5.6 88 88 Calm 30.11 1020 10 16 0.00 0.00
11:56 pm 23:56 Clear 24 -4.4 21 -6.1 88 88 S 6 9 30.09 1019 10 16 0.00 0.00

Powered by AerisWeather